Location: Shepherdstown, WV
(39.4326°N, 77.8042°W)
Time: 05:13:13
(UTC-04:00)

Vanguard 3 - Pass Details

Date: 09 August 2021
Orbit: 510 x 3260 km, 33.3° (Epoch: 21 September)

Event Time Altitude Azimuth Distance (km) Brightness Sun altitude
Rises 23:36:00 0° 279° (W) 6,568 12.3 -30.3°
Reaches altitude 10° 23:41:08 10° 269° (W) 5,841 11.7 -30.7°
Maximum altitude 23:55:08 27° 221° (SW) 4,895 10.8 -31.9°
Enters shadow 23:59:24 25° 204° (SSW) 4,997 10.7 -32.2°
Drops below altitude 10° 00:09:22 10° 173° (S) 5,874 - -32.9°
Sets 00:14:42 0° 162° (SSE) 6,601 - -33.2°
